Location: Bourg-d�Oueil
(42.8588°N, 0.4991°E)
Time: 11:11:41
(UTC+00:00)

Tiangong - Pass Details

Date: 05 December 2022
Orbit: 383 x 386 km, 41.5° (Epoch: 30 January)

Event Time Altitude Azimuth Distance (km) Brightness Sun altitude
Rises 17:00:17 0° 254° (WSW) 2,251 4.0 -6.7°
Reaches altitude 10° 17:02:22 10° 251° (WSW) 1,400 2.5 -7.1°
Maximum altitude 17:05:29 59° 171° (S) 448 -1.7 -7.6°
Drops below altitude 10° 17:08:37 10° 91° (E) 1,407 0.1 -8.1°
Enters shadow 17:08:44 - 90° (E) 1,455 0.2 -8.2°
